Regional Weather Roundup
Issued by NWS

Home | Current Version | Previous Version | Graphics & Text | Print | Product List | Glossary Off
Versions: 1 2 3 4 5 6 7 8 9 10 11 12 13 14 15 16 17 18 19 20 21 22 23 24 25 26 27 28 29 30 31 32 33 34 35 36 37 38 39 40 41 42 43 44 45 46 47 48 49 50

284
ASUS43 KMPX 222101
RWRMN
WEATHER ROUNDUP FOR MINNESOTA
NATIONAL WEATHER SERVICE TWIN CITIES/CHANHASSEN MN
300 PM CST WED NOV 22 2017


NOTE: "FAIR" INDICATES FEW OR NO CLOUDS BELOW 12,000 FEET WITH NO
SIGNIFICANT WEATHER AND/OR OBSTRUCTIONS TO VISIBILITY. N/A MEANS
CURRENT SKY AND/OR WEATHER CONDITIONS ARE NOT AVAILABLE.

MNZ060>063-068>070-222200-
   Twin Cities Metro

CITY           SKY/WX    TMP DP  RH WIND       PRES   REMARKS
TWIN CITIES    CLOUDY    27  14  58 S7        30.13F WCI  19
ST PAUL        PTSUNNY   28  14  55 S7        30.15F WCI  21
CRYSTAL        CLOUDY    27  11  51 S10       30.11F WCI  17
BLAINE         CLOUDY    28  14  54 S12       30.11F WCI  18
LAKEVILLE      CLOUDY    28  16  59 S10       30.12F WCI  19
EDEN PRAIRIE   CLOUDY    28  13  53 S9        30.11F WCI  19
SOUTH ST PAUL  MOSUNNY   28  13  53 S6        30.14F WCI  22
LAKE ELMO      FAIR      28  18  64 S12       30.14F WCI  18
$$
MNZ001>005-007-008-013>017-022>024-027-028-222200-
   Northwest Minnesota

CITY           SKY/WX    TMP DP  RH WIND       PRES   REMARKS
BEMIDJI        LGT SNOW  19  16  86 SE8       29.96F WCI   9
HALLOCK        CLOUDY    21  19  93 S16       29.91S WCI   7
ROSEAU         CLOUDY    21  16  79 S14       29.92F WCI   8
WARROAD        LGT SNOW  19  16  86 S7        29.94F WCI  10
CROOKSTON      CLOUDY    27  16  63 S14       29.92F WCI  15
FOSSTON        CLOUDY    21  16  79 SE9       29.91F WCI  11
DETROIT LAKES  CLOUDY    28  16  59 S14       29.93F WCI  17
MOORHEAD       MIX PCPN  28  16  59 S17G23    29.91F WCI  16
PARK RAPIDS    LGT SNOW  21  16  81 S12       29.96F WCI   9
MAHNOMEN       CLOUDY    24  15  66 S12G17    29.90F WCI  13
$$
MNZ006-009>011-018-025>026-222200-
   North Central Minnesota

CITY           SKY/WX    TMP DP  RH WIND       PRES   REMARKS
BAUDETTE       CLOUDY    18  14  84 S7        29.97S WCI   9
FLAG ISLAND    CLOUDY    19  16  86 S8        29.95S WCI   9
INTL FALLS     LGT SNOW  19  12  74 VRB6      29.99F WCI  11
WASKISH        LGT SNOW  19  16  86 SE6       29.96F WCI  11
BIG FORK       LGT SNOW  19  16  86 S8        29.98F VSB 1   WCI   9
LONGVILLE      LGT SNOW  19  18  93 S7        30.01F VSB 1   WCI  10
GRAND RAPIDS   LGT SNOW  20  16  84 S8        30.03F FOG     WCI  10
CRANE LAKE     CLOUDY    19  12  73 S8        30.04S WCI   9
ORR            CLOUDY    18  10  73 S7        29.98F WCI   8
COOK           FLURRIES  19  14  79 S5        30.01F WCI  13
WALKER         LGT SNOW  19  15  88 S9        29.98F VSB 1   WCI   7
$$
MNZ012-019>021-037-222200-
   Northeast Minnesota

CITY           SKY/WX    TMP DP  RH WIND       PRES   REMARKS
DULUTH         FLURRIES  20  13  74 SW10      30.05F WCI   9
ELY            FLURRIES  19  12  73 SW6       30.02F WCI  11
HIBBING        LGT SNOW  20  14  77 VRB5      30.03F WCI  13
EVELETH        MIX PCPN  20  12  71 S8        30.04F WCI  10
DULUTH HARBOR  PTSUNNY   27  16  63 SW13      30.12F WCI  16
TWO HARBORS    CLOUDY    25  16  68 SW13      30.05F WCI  13
SILVER BAY     CLOUDY    23  12  63 S9        30.05F WCI  13
GRAND MARAIS     N/A     27  18  69 SW12      30.08F WCI  17
G MARAIS ARPRT CLOUDY    18   7  62 S6        29.99F WCI   9
$$
MNZ029>031-032-039>041-046>048-054>057-064-222200-
   West Central Minnesota

CITY           SKY/WX    TMP DP  RH WIND       PRES   REMARKS
FERGUS FALLS   CLOUDY    28  14  54 S16G23    29.98S WCI  17
WHEATON        CLOUDY    34  16  47 SE18      29.93F WCI  23
MORRIS         CLOUDY    30  14  51 SE17G23   29.95S WCI  18
ALEXANDRIA     CLOUDY    27  13  55 SE15      29.97F WCI  15
ELBOW LAKE     CLOUDY    28  14  55 SE20      29.94F HAZE    WCI  15
WADENA         PTSUNNY   25  12  58 SE13      29.96F WCI  13
GLENWOOD       CLOUDY    28  14  54 SE18      29.98F WCI  16
APPLETON       CLOUDY    36  12  38 S7        29.96F
BENSON         CLOUDY    34  12  40 S15G21    29.99S WCI  24
ORTONVILLE       N/A     36  16  44 N13       29.93F
MADISON        CLOUDY    39  16  38 S17       29.95F
WILLMAR        PTSUNNY   30  16  55 S14G21    30.01F WCI  20
$$
MNZ033>034-036-042>043-049>051-058-059-222200-
   Central Minnesota

CITY           SKY/WX    TMP DP  RH WIND       PRES   REMARKS
ST CLOUD       CLOUDY    25  13  60 S9        30.07F WCI  15
SAUK CENTRE    CLOUDY    26  14  60 SE15      29.99F WCI  14
PAYNESVILLE    CLOUDY    28  16  61 SE12G17   30.03F WCI  18
AITKIN         MIX PCPN  19  16  86 S6        30.04F WCI  11
PINE RIVER     LGT SNOW  18  16  93 SE7       30.04F VSB 3/4 WCI   8
BRAINERD       LGT SNOW  21  16  81 S8        30.04F VSB 1   WCI  11
STAPLES        PTSUNNY   21  12  68 SE9       29.98F WCI  11
LITTLE FALLS   CLOUDY    27   9  46 SE9       30.05F WCI  17
LITCHFIELD     CLOUDY    28  16  59 SE6       30.05F WCI  22
BUFFALO        CLOUDY    27  13  57 SE6       30.11F WCI  20
MAPLE LAKE     PTSUNNY   28  16  62 S7        30.09F WCI  20
HUTCHINSON     CLOUDY    31  15  52 SE8       30.06F WCI  23
$$
MNZ037-044-045-052-053-222200-
   East Central Minnesota

CITY           SKY/WX    TMP DP  RH WIND       PRES   REMARKS
PRINCETON      MOSUNNY   27  14  59 SE8       30.09F WCI  18
MORA           LGT SNOW  21  18  86 S8        30.13F WCI  12
CAMBRIDGE      PTSUNNY   25  14  63 SE7       30.11F WCI  17
RUSH CITY      CLOUDY    23  18  80 S8        30.13F WCI  14
MOOSE LAKE     FLURRIES  23  16  74 SW8       30.08S WCI  14
HINCKLEY       CLOUDY    23  19  86 S10       30.12S WCI  12
CLOQUET        CLOUDY    21  12  68 S7        30.06F WCI  13
MCGREGOR       CLOUDY    23  19  86 S9        30.06F WCI  13
$$
MNZ071>073-080-081-089-090-097-098-222200-
   Southwest Minnesota

CITY           SKY/WX    TMP DP  RH WIND       PRES   REMARKS
MONTEVIDEO     CLOUDY    34  16  47 SW10      29.98F WCI  26
GRANITE FALLS  CLOUDY    37  17  44 SE13      30.00F
CANBY          CLOUDY    37  17  42 S13G18    29.97F
MARSHALL       CLOUDY    36  14  40 S22G32    29.97F
REDWOOD FALLS  CLOUDY    35  12  38 S17       30.03F WCI  25
OLIVIA         SUNNY     34  18  51 S13G20    30.01F WCI  25
PIPESTONE      CLOUDY    32  14  47 SW17G23   29.99F WCI  21
WINDOM           N/A     34  14  44 S16G22    30.03F WCI  23
WORTHINGTON    CLOUDY    33  13  43 S26       30.03F WCI  20
JACKSON        CLOUDY    34  12  40 S21       30.06F WCI  22
SLAYTON        CLOUDY    33   8  35 S24G31    30.02F WCI  20
$$
MNZ065>067-074>077-082>085-091>093-222200-
   South Central Minnesota

CITY           SKY/WX    TMP DP  RH WIND       PRES   REMARKS
NEW ULM        CLOUDY    32  12  43 S13       30.06F WCI  22
ST JAMES       CLOUDY    34  12  40 S18       30.08F WCI  23
FAIRMONT       CLOUDY    33  14  45 S20       30.08F WCI  21
GLENCOE        CLOUDY    31  16  53 S9G16     30.08F WCI  23
FARIBAULT      CLOUDY    30  14  51 S9G17     30.13F WCI  22
OWATONNA       CLOUDY    30  16  55 S14       30.13F WCI  20
WASECA         CLOUDY    32  18  55 S13G21    30.12F WCI  22
ALBERT LEA     PTSUNNY   30  10  43 S9        30.12F WCI  22
$$
MNZ078>079-086>088-094>096-222200-
   Southeast Minnesota

CITY           SKY/WX    TMP DP  RH WIND       PRES   REMARKS
ROCHESTER      CLOUDY    28  15  58 S16       30.14F WCI  16
RED WING       MOSUNNY   28  10  47 S9        30.15F WCI  20
STANTON        PTSUNNY   31  14  50 S7        30.13F WCI  24
DODGE CENTER   SUNNY     28  12  50 S14       30.13F WCI  17
WINONA         CLOUDY    30  14  51 CALM      30.20F
PRESTON        CLOUDY    29  13  52 S13       30.16F WCI  18
$$
ABBREVIATIONS USED IN REMARKS
   TC - TEMPERATURES IN CELSIUS
  WCI - WIND CHILL INDEX
   HX - HEAT INDEX
  VSB - VISIBILITY
$$




USA.gov is the U.S. government's official web portal to all federal, state and local government web resources and services.